FW0192 Weather Reports


Display with metric or nautical units.
time (UTC)temp
F
wind
direction
speed
MPH
gust
MPH
rain 1hr
in
rain 24hr
in
rain mn
in
humidity
%
barometer
mb
20260505080059 44 59 10.0 20.0 0.00 0.18 0.00 87 1006.0
20260505075549 47 17 14.0 20.0 0.00 0.18 0.00 87 1006.0
20260505075048 47 80 4.0 8.0 0.00 0.18 0.00 88 1006.2
20260505074548 47 136 2.0 5.0 0.00 0.18 0.00 88 1006.2
20260505074047 47 138 2.0 3.0 0.00 0.18 0.00 88 1006.1
20260505073548 47 138 1.0 3.0 0.00 0.18 0.00 88 1006.1
20260505073053 47 138 0.0 2.0 0.00 0.18 0.00 87 1006.2
20260505072546 48 138 0.0 2.0 0.00 0.18 0.00 87 1006.1
20260505072046 48 138 0.0 2.0 0.00 0.18 0.00 88 1006.1
20260505071549 48 138 0.0 4.0 0.00 0.18 0.00 87 1006.0
20260505071049 48 138 1.0 4.0 0.00 0.18 0.00 87 1005.9
20260505070545 48 138 1.0 5.0 0.00 0.18 0.00 87 1005.8
20260505070051 48 138 2.0 7.0 0.00 0.18 0.00 87 1005.7
20260505065544 48 138 3.0 7.0 0.00 0.18 0.00 88 1005.6
20260505065042 48 140 3.0 7.0 0.00 0.18 0.00 88 1005.6
20260505064542 48 140 4.0 7.0 0.00 0.18 0.00 89 1005.6
20260505064040 48 140 3.0 7.0 0.00 0.18 0.00 89 1005.7
20260505063540 48 140 3.0 7.0 0.00 0.18 0.00 89 1005.8
20260505063048 48 140 2.0 8.0 0.00 0.18 0.00 90 1005.8
20260505062540 48 140 2.0 9.0 0.00 0.18 0.00 90 1005.8
20260505062038 48 144 3.0 9.0 0.00 0.18 0.00 91 1005.9
20260505061536 48 177 3.0 7.0 0.00 0.18 0.00 91 1005.9
20260505061035 49 204 1.0 5.0 0.00 0.18 0.00 92 1005.8
20260505060536 49 205 2.0 5.0 0.00 0.18 0.00 91 1005.8
20260505060052 49 211 1.0 5.0 0.00 0.18 0.00 91 1005.9
20260505055532 49 211 2.0 5.0 0.00 0.18 0.18 91 1005.8
20260505055031 49 212 2.0 5.0 0.01 0.18 0.18 91 1005.8
20260505054531 49 213 1.0 4.0 0.01 0.18 0.18 92 1005.7
20260505054034 49 217 1.0 4.0 0.01 0.18 0.18 92 1005.7
20260505053531 49 219 2.0 4.0 0.01 0.18 0.18 91 1005.6
20260505053032 49 221 1.0 5.0 0.02 0.18 0.18 91 1005.6
20260505052529 49 221 1.0 5.0 0.03 0.18 0.18 91 1005.6
20260505052029 49 227 2.0 6.0 0.03 0.18 0.18 91 1005.6
20260505051530 49 229 4.0 6.0 0.04 0.18 0.18 91 1005.4
20260505051028 49 232 3.0 6.0 0.05 0.18 0.18 90 1005.4
20260505050528 49 232 3.0 6.0 0.06 0.18 0.18 89 1005.4
20260505041531 49 248 2.0 7.0 0.12 0.14 0.14 88 1005.5
20260505041026 50 248 3.0 8.0 0.12 0.13 0.13 87 1005.5
20260505040530 50 248 4.0 8.0 0.12 0.12 0.12 87 1005.4
20260505040025 50 249 4.0 9.0 0.11 0.11 0.11 86 1005.3
20260505035527 51 263 5.0 9.0 0.10 0.10 0.10 86 1005.2
20260505035023 51 276 6.0 9.0 0.08 0.08 0.08 85 1005.2
20260505034524 51 294 4.0 7.0 0.07 0.07 0.07 84 1005.2
20260505034027 51 302 3.0 5.0 0.06 0.06 0.06 84 1005.3
20260505033522 52 308 3.0 5.0 0.05 0.05 0.05 83 1005.1
20260505033022 52 309 2.0 4.0 0.05 0.05 0.05 82 1005.0
20260505032520 52 309 1.0 3.0 0.04 0.04 0.04 81 1005.0
20260505032023 52 310 0.0 2.0 0.03 0.03 0.03 80 1004.9
20260505031520 52 310 0.0 2.0 0.02 0.02 0.02 80 1004.8
20260505031018 52 310 0.0 0.0 0.01 0.01 0.01 78 1004.7
20260505030518 52 310 0.0 0.0 0.00 0.00 0.00 78 1004.5
20260505030016 52 310 0.0 1.0 0.00 0.00 0.00 77 1004.4
20260505025518 52 310 0.0 1.0 0.00 0.00 0.00 77 1004.3
20260505025014 52 310 0.0 0.0 0.00 0.00 0.00 76 1004.2
20260505024514 52 310 0.0 2.0 0.00 0.00 0.00 76 1004.1
20260505024015 52 310 0.0 4.0 0.00 0.00 0.00 77 1004.1
20260505023513 52 310 1.0 6.0 0.00 0.00 0.00 77 1004.0
20260505023014 53 309 3.0 6.0 0.00 0.00 0.00 76 1004.0
20260505022514 53 309 2.0 5.0 0.00 0.00 0.00 75 1003.9
20260505022012 53 309 3.0 6.0 0.00 0.00 0.00 74 1003.8
20260505021512 53 309 4.0 6.0 0.00 0.00 0.00 74 1003.9
20260505021012 53 309 4.0 8.0 0.00 0.00 0.00 74 1004.0
20260505020511 53 306 4.0 8.0 0.00 0.00 0.00 74 1003.9
20260505020010 53 304 4.0 14.0 0.00 0.00 0.00 73 1004.0
20260505015510 54 303 8.0 14.0 0.00 0.00 0.00 69 1004.0
20260505015009 54 320 10.0 16.0 0.00 0.00 0.00 69 1003.9
20260505014513 56 302 13.0 16.0 0.00 0.00 0.00 64 1003.7
20260505014008 56 292 5.0 10.0 0.00 0.00 0.00 65 1003.6
20260505013510 56 301 4.0 5.0 0.00 0.00 0.00 61 1003.6
20260505013006 57 301 3.0 9.0 0.00 0.00 0.00 59 1003.7
20260505012506 57 304 6.0 11.0 0.00 0.00 0.00 59 1003.6
20260505012005 58 313 7.0 14.0 0.00 0.00 0.00 56 1003.4
20260505011505 58 314 10.0 15.0 0.00 0.00 0.00 52 1003.3
20260505011005 59 334 8.0 12.0 0.00 0.00 0.00 49 1003.1
20260505010505 59 338 8.0 12.0 0.00 0.00 0.00 49 1002.8
20260505010005 59 340 9.0 12.0 0.00 0.00 0.00 49 1002.6
20260505005507 59 349 8.0 12.0 0.00 0.00 0.00 48 1002.4
20260505005004 59 336 8.0 11.0 0.00 0.00 0.00 49 1002.3
20260505004506 59 337 7.0 12.0 0.00 0.00 0.00 49 1002.4
20260505004003 59 350 9.0 13.0 0.00 0.00 0.00 47 1002.3
20260505003503 59 342 10.0 16.0 0.00 0.00 0.00 47 1002.3
20260505003003 59 344 11.0 16.0 0.00 0.00 0.00 47 1002.4
20260505002503 59 346 10.0 14.0 0.00 0.00 0.00 47 1002.4
20260505002003 59 341 10.0 14.0 0.00 0.00 0.00 48 1002.4
20260505001503 59 339 10.0 17.0 0.00 0.00 0.00 48 1002.3
20260505001006 60 340 13.0 18.0 0.00 0.00 0.00 47 1002.4
20260505000505 60 342 11.0 18.0 0.00 0.00 0.00 46 1002.3
20260505000004 61 323 10.0 18.0 0.00 0.00 0.00 45 1002.4
20260504235502 62 339 4.0 13.0 0.00 0.00 0.00 40 1002.5
20260504235002 62 337 9.0 16.0 0.00 0.00 0.00 40 1002.4
20260504234502 62 360 8.0 16.0 0.00 0.00 0.00 39 1002.3
20260504234002 63 325 6.0 17.0 0.00 0.00 0.00 39 1002.5
20260504233502 63 250 9.0 17.0 0.00 0.00 0.00 38 1002.4
20260504233005 64 284 8.0 11.0 0.00 0.00 0.00 36 1002.2
20260504232505 64 312 6.0 11.0 0.00 0.00 0.00 35 1002.2
20260504232001 64 304 8.0 13.0 0.00 0.00 0.00 35 1002.3
20260504231501 64 340 8.0 13.0 0.00 0.00 0.00 35 1002.1
20260504231001 64 347 8.0 12.0 0.00 0.00 0.00 35 1001.9
20260504230503 64 349 7.0 14.0 0.00 0.00 0.00 35 1001.7
20260504230100 64 355 9.0 14.0 0.00 0.00 0.00 35 1001.5
20260504225601 64 348 8.0 14.0 0.00 0.00 0.00 34 1001.4
20260504225059 64 5 8.0 15.0 0.00 0.00 0.00 34 1001.2
20260504224600 64 28 11.0 17.0 0.00 0.00 0.00 34 1001.1
20260504224101 64 344 11.0 16.0 0.00 0.00 0.00 34 1000.8
20260504223604 65 17 10.0 19.0 0.00 0.00 0.00 33 1000.8
20260504223122 65 14 15.0 21.0 0.00 0.00 0.00 32 1000.7
20260504222602 66 18 12.0 21.0 0.00 0.00 0.00 31 1000.8
20260504222059 66 13 9.0 18.0 0.00 0.00 0.00 32 1000.8
20260504221603 66 31 10.0 16.0 0.00 0.00 0.00 31 1000.9
20260504221059 66 36 13.0 21.0 0.00 0.00 0.00 31 1000.8
20260504220559 66 360 13.0 21.0 0.00 0.00 0.00 30 1000.7
20260504215558 68 26 16.0 22.0 0.00 0.00 0.00 29 1000.8
20260504215058 67 17 9.0 21.0 0.00 0.00 0.00 30 1001.3
20260504214557 67 14 10.0 22.0 0.00 0.00 0.00 31 1001.6
20260504214100 67 9 14.0 22.0 0.00 0.00 0.00 31 1001.6
20260504213557 66 22 12.0 22.0 0.00 0.00 0.00 31 1001.6
20260504213106 66 351 14.0 22.0 0.00 0.00 0.00 32 1001.6
20260504212558 66 360 13.0 25.0 0.00 0.00 0.00 31 1001.7
20260504212057 65 345 17.0 25.0 0.00 0.00 0.00 33 1001.8
20260504211651 65 338 7.0 18.0 0.00 0.00 0.00 33 1002.0
20260504211056 64 278 14.0 18.0 0.00 0.00 0.00 34 1002.0
20260504210559 64 331 7.0 25.0 0.00 0.00 0.00 35 1001.9
20260504210056 64 329 14.0 25.0 0.00 0.00 0.00 40 1001.7
20260504205558 66 327 17.0 29.0 0.00 0.00 0.00 35 1001.2
20260504205053 67 342 17.0 29.0 0.00 0.00 0.00 28 1001.0
20260504204553 68 333 16.0 23.0 0.00 0.00 0.00 26 1000.6
20260504204054 68 328 17.0 27.0 0.00 0.00 0.00 25 1000.2
20260504203555 68 360 18.0 30.0 0.00 0.00 0.00 26 999.9
20260504203057 69 360 22.0 30.0 0.00 0.00 0.00 25 999.8
20260504202553 70 346 17.0 28.0 0.00 0.00 0.00 24 999.9
20260504202054 71 360 17.0 28.0 0.00 0.00 0.00 23 1000.0
20260504201559 72 342 16.0 24.0 0.00 0.00 0.00 22 1000.1
20260504201052 72 310 12.0 20.0 0.00 0.00 0.00 21 1000.1
20260504200552 73 343 12.0 21.0 0.00 0.00 0.00 20 1000.1
20260504200054 73 311 14.0 21.0 0.00 0.00 0.00 20 1000.1
20260504195551 73 290 9.0 18.0 0.00 0.00 0.00 19 1000.1
20260504195051 74 285 11.0 20.0 0.00 0.00 0.00 19 1000.1
20260504194555 74 295 13.0 22.0 0.00 0.00 0.00 19 1000.2
20260504194051 74 296 12.0 22.0 0.00 0.00 0.00 18 1000.2
20260504193551 74 285 12.0 18.0 0.00 0.00 0.00 18 1000.0
20260504193056 74 287 10.0 18.0 0.00 0.00 0.00 19 1000.1
20260504192551 74 271 12.0 20.0 0.00 0.00 0.00 18 1000.0
20260504192049 74 288 9.0 20.0 0.00 0.00 0.00 18 1000.2
20260504191607 73 324 14.0 19.0 0.00 0.00 0.00 18 1000.1
20260504191050 73 288 13.0 18.0 0.00 0.00 0.00 19 1000.0
20260504190550 74 275 13.0 21.0 0.00 0.00 0.00 18 1000.0
20260504190104 75 288 12.0 23.0 0.00 0.00 0.00 18 1000.1
20260504185547 75 311 13.0 22.0 0.00 0.00 0.00 19 1000.1
20260504185046 74 307 16.0 22.0 0.00 0.00 0.00 19 1000.0
20260504184551 74 313 13.0 22.0 0.00 0.00 0.00 18 1000.1
20260504184049 75 261 13.0 22.0 0.00 0.00 0.00 19 1000.1
20260504183548 75 261 13.0 19.0 0.00 0.00 0.00 18 1000.1
20260504183044 74 278 12.0 20.0 0.00 0.00 0.00 19 1000.3
20260504182545 74 306 16.0 20.0 0.00 0.00 0.00 19 1000.4
20260504182041 73 283 13.0 23.0 0.00 0.00 0.00 19 1000.5
20260504181540 73 284 15.0 23.0 0.00 0.00 0.00 19 1000.5
20260504181039 72 360 14.0 22.0 0.00 0.00 0.00 20 1000.5
20260504180538 72 303 15.0 22.0 0.00 0.00 0.00 20 1000.6
20260504180036 72 360 16.0 21.0 0.00 0.00 0.00 21 1000.7
20260504175535 72 360 10.0 16.0 0.00 0.00 0.00 22 1000.8
20260504175034 72 286 10.0 17.0 0.00 0.00 0.00 23 1001.1
20260504174536 72 291 12.0 19.0 0.00 0.00 0.00 23 1001.1
20260504174032 72 258 12.0 19.0 0.00 0.00 0.00 23 1001.2
20260504173532 71 277 11.0 18.0 0.00 0.00 0.00 24 1001.1
20260504173030 71 286 12.0 18.0 0.00 0.00 0.00 24 1001.2
20260504172529 71 292 13.0 20.0 0.00 0.00 0.00 24 1001.3
20260504172028 71 360 14.0 20.0 0.00 0.00 0.00 24 1001.4
20260504171529 71 267 13.0 21.0 0.00 0.00 0.00 25 1001.4
20260504171027 70 290 12.0 19.0 0.00 0.00 0.00 25 1001.5
20260504170524 69 265 12.0 19.0 0.00 0.00 0.00 26 1001.5
20260504151059 58 227 6.0 9.0 0.00 0.00 0.00 38 1002.3
20260504150554 58 227 6.0 9.0 0.00 0.00 0.00 38 1002.2
20260504141043 53 226 6.0 10.0 0.00 0.00 0.00 44 1002.4
20260504140548 53 223 7.0 10.0 0.00 0.00 0.00 44 1002.3
20260504130537 48 217 5.0 9.0 0.00 0.00 0.00 52 1002.3
20260504110520 45 240 3.0 7.0 0.00 0.00 0.00 55 1002.2
20260504100513 46 240 4.0 8.0 0.00 0.00 0.00 53 1002.5
20260504082002 46 290 3.0 7.0 0.00 0.00 0.00 53 1003.1
20260504081603 46 290 5.0 7.0 0.00 0.00 0.00 52 1003.2
20260504081100 46 295 3.0 4.0 0.00 0.00 0.00 52 1003.2
20260504080600 46 295 3.0 4.0 0.00 0.00 0.00 52 1003.2